• En España
  • Lista de países
  • Para 7 días
  • Temperatura del agua
  • Mapa Satelital
  • El tiempo en el mapa
  • Informadores
  • user-avatar
    Iniciar sesión

    Tiempo cada hora Dobczyce

    Hoy, 21 Enero, Domingo

    Tiempo Temperatura Precipitaciones Viento Presión Humedad
    00:00 -3°C° 0 mm 2 mps 732 mmHg 86%
    01:00 -1°C° 0 mm 1 mps 731 mmHg 87%
    02:00 -1°C° 0 mm 1 mps 731 mmHg 87%
    03:00 -1°C° 0 mm 1 mps 731 mmHg 87%
    04:00 -2°C° 0 mm 2 mps 731 mmHg 86%
    05:00 -2°C° 0,1 mm 2 mps 731 mmHg 87%
    06:00 -2°C° 0,1 mm 2 mps 731 mmHg 89%
    07:00 -2°C° 0 mm 2 mps 731 mmHg 91%
    08:00 -2°C° 0,3 mm 2 mps 732 mmHg 90%
    09:00 -1°C° 0,3 mm 2 mps 732 mmHg 89%
    10:00 -1°C° 0,3 mm 2 mps 732 mmHg 89%
    11:00 -1°C° 0,2 mm 2 mps 733 mmHg 88%
    12:00 +1°C° 0,2 mm 2 mps 733 mmHg 88%
    13:00 +1°C° 0 mm 2 mps 733 mmHg 88%
    14:00 -1°C° 0,2 mm 2 mps 734 mmHg 90%
    15:00 -1°C° 0,2 mm 2 mps 734 mmHg 92%
    16:00 -1°C° 0,2 mm 3 mps 735 mmHg 94%
    17:00 -2°C° 0,3 mm 3 mps 736 mmHg 94%
    18:00 -2°C° 0,3 mm 3 mps 736 mmHg 94%
    19:00 -3°C° 0,3 mm 4 mps 737 mmHg 94%
    20:00 -3°C° 0,4 mm 4 mps 737 mmHg 93%
    21:00 -2°C° 0,4 mm 3 mps 738 mmHg 93%
    22:00 -4°C° 0,4 mm 3 mps 739 mmHg 93%
    23:00 -4°C° 0,2 mm 3 mps 739 mmHg 93%

    Mañana, 22 Enero, Lunes

    Tiempo Temperatura Precipitaciones Viento Presión Humedad
    00:00 -4°C° 0,2 mm 3 mps 739 mmHg 93%
    01:00 -3°C° 0,2 mm 2 mps 739 mmHg 93%
    02:00 -3°C° 0,1 mm 2 mps 739 mmHg 93%
    03:00 -3°C° 0,1 mm 2 mps 740 mmHg 93%
    04:00 -2°C° 0,1 mm 1 mps 740 mmHg 93%
    05:00 -2°C° 0 mm 1 mps 740 mmHg 94%
    06:00 -2°C° 0 mm 1 mps 740 mmHg 94%
    07:00 -3°C° 0 mm 1 mps 740 mmHg 94%
    08:00 -2°C° 0 mm 1 mps 740 mmHg 91%
    09:00 -4°C° 0 mm 2 mps 740 mmHg 88%
    10:00 -3°C° 0 mm 2 mps 740 mmHg 85%
    11:00 -3°C° 0 mm 2 mps 740 mmHg 82%
    12:00 -2°C° 0 mm 2 mps 740 mmHg 79%
    13:00 -2°C° 0 mm 2 mps 740 mmHg 76%
    14:00 -3°C° 0 mm 2 mps 740 mmHg 80%
    15:00 -3°C° 0 mm 2 mps 740 mmHg 83%
    16:00 -4°C° 0 mm 2 mps 740 mmHg 86%
    17:00 -5°C° 0 mm 2 mps 740 mmHg 87%
    18:00 -5°C° 0 mm 2 mps 740 mmHg 88%
    19:00 -6°C° 0 mm 2 mps 740 mmHg 89%
    20:00 -6°C° 0 mm 2 mps 740 mmHg 89%
    21:00 -6°C° 0 mm 2 mps 741 mmHg 89%
    22:00 -6°C° 0 mm 2 mps 741 mmHg 89%
    23:00 -6°C° 0 mm 2 mps 741 mmHg 88%

    Pasado mañana, 23 Enero, Martes

    Tiempo Temperatura Precipitaciones Viento Presión Humedad
    00:00 -6°C° 0 mm 2 mps 741 mmHg 87%
    01:00 -4°C° 0 mm 1 mps 742 mmHg 86%
    02:00 -4°C° 0 mm 1 mps 742 mmHg 86%
    03:00 -4°C° 0 mm 1 mps 742 mmHg 85%
    04:00 -4°C° 0 mm 1 mps 742 mmHg 84%
    05:00 -4°C° 0 mm 1 mps 742 mmHg 84%
    06:00 -6°C° 0 mm 2 mps 742 mmHg 83%
    07:00 -6°C° 0 mm 2 mps 742 mmHg 83%
    08:00 -3°C° 0 mm 1 mps 743 mmHg 81%
    09:00 -2°C° 0 mm 1 mps 744 mmHg 79%
    10:00 -1°C° 0 mm 1 mps 744 mmHg 78%
    11:00 0°C° 0 mm 1 mps 745 mmHg 76%
    12:00 +1°C° 0 mm 1 mps 745 mmHg 75%
    13:00 +2°C° 0 mm 1 mps 745 mmHg 74%
    14:00 +1°C° 0 mm 1 mps 746 mmHg 78%
    15:00 0°C° 0 mm 1 mps 746 mmHg 82%
    16:00 0°C° 0 mm 1 mps 746 mmHg 86%
    17:00 -1°C° 0 mm 1 mps 747 mmHg 86%
    18:00 -1°C° 0 mm 1 mps 747 mmHg 87%
    19:00 -2°C° 0 mm 1 mps 748 mmHg 87%
    20:00 -1°C° 0 mm 1 mps 748 mmHg 88%
    21:00 -1°C° 0 mm 1 mps 748 mmHg 88%
    22:00 -3°C° 0 mm 2 mps 749 mmHg 88%
    23:00 -3°C° 0 mm 2 mps 749 mmHg 88%

    24 Enero, Miércoles

    Tiempo Temperatura Precipitaciones Viento Presión Humedad
    00:00 -3°C° 0 mm 2 mps 749 mmHg 88%
    01:00 -4°C° 0 mm 2 mps 749 mmHg 88%
    02:00 -4°C° 0 mm 2 mps 749 mmHg 88%
    03:00 -4°C° 0 mm 2 mps 749 mmHg 88%
    04:00 -4°C° 0 mm 2 mps 749 mmHg 88%
    05:00 -5°C° 0 mm 3 mps 749 mmHg 88%
    06:00 -5°C° 0 mm 3 mps 749 mmHg 87%
    07:00 -5°C° 0 mm 3 mps 749 mmHg 87%
    08:00 -2°C° 0 mm 3 mps 749 mmHg 85%
    09:00 -1°C° 0 mm 3 mps 749 mmHg 83%
    10:00 -1°C° 0 mm 4 mps 749 mmHg 81%
    11:00 0°C° 0 mm 4 mps 749 mmHg 82%
    12:00 +2°C° 0 mm 3 mps 749 mmHg 83%
    13:00 +3°C° 0 mm 3 mps 748 mmHg 85%
    14:00 +2°C° 0 mm 3 mps 748 mmHg 85%
    15:00 +2°C° 0 mm 3 mps 748 mmHg 86%
    16:00 +2°C° 0 mm 3 mps 748 mmHg 87%
    17:00 +1°C° 0 mm 3 mps 748 mmHg 87%
    18:00 +1°C° 0 mm 3 mps 748 mmHg 87%
    19:00 0°C° 0 mm 3 mps 748 mmHg 88%
    20:00 0°C° 0 mm 3 mps 748 mmHg 88%
    21:00 0°C° 0 mm 3 mps 748 mmHg 88%
    22:00 0°C° 0 mm 3 mps 748 mmHg 88%
    23:00 0°C° 0 mm 3 mps 747 mmHg 88%

    25 Enero, Jueves

    Tiempo Temperatura Precipitaciones Viento Presión Humedad
    00:00 0°C° 0 mm 3 mps 747 mmHg 87%
    01:00 0°C° 0 mm 3 mps 746 mmHg 87%
    02:00 0°C° 0 mm 3 mps 746 mmHg 87%
    03:00 0°C° 0 mm 3 mps 746 mmHg 86%
    04:00 0°C° 0 mm 3 mps 745 mmHg 86%
    05:00 0°C° 0 mm 3 mps 745 mmHg 85%
    06:00 0°C° 0 mm 3 mps 745 mmHg 85%
    07:00 0°C° 0 mm 3 mps 745 mmHg 84%
    08:00 +1°C° 0 mm 3 mps 745 mmHg 83%
    09:00 +1°C° 0 mm 3 mps 745 mmHg 81%
    10:00 +3°C° 0 mm 2 mps 745 mmHg 80%
    11:00 +4°C° 0 mm 2 mps 744 mmHg 80%
    12:00 +5°C° 0 mm 2 mps 744 mmHg 79%
    13:00 +5°C° 0 mm 2 mps 744 mmHg 79%
    14:00 +5°C° 0 mm 2 mps 743 mmHg 80%
    15:00 +4°C° 0 mm 2 mps 743 mmHg 81%
    16:00 +3°C° 0 mm 2 mps 743 mmHg 82%
    17:00 +3°C° 0 mm 2 mps 743 mmHg 82%
    18:00 +2°C° 0 mm 2 mps 742 mmHg 82%
    19:00 +1°C° 0 mm 2 mps 742 mmHg 82%
    20:00 +1°C° 0 mm 2 mps 742 mmHg 82%
    21:00 +1°C° 0 mm 2 mps 742 mmHg 82%
    22:00 +1°C° 0 mm 2 mps 742 mmHg 82%
    23:00 +1°C° 0 mm 2 mps 742 mmHg 82%

    26 Enero, Viernes

    Tiempo Temperatura Precipitaciones Viento Presión Humedad
    00:00 +1°C° 0 mm 2 mps 742 mmHg 83%
    01:00 +1°C° 0 mm 2 mps 742 mmHg 83%
    02:00 +1°C° 0 mm 2 mps 741 mmHg 83%
    03:00 +1°C° 0 mm 2 mps 741 mmHg 84%
    04:00 +1°C° 0 mm 2 mps 741 mmHg 84%
    05:00 +1°C° 0 mm 2 mps 741 mmHg 85%
    06:00 +1°C° 0 mm 2 mps 741 mmHg 85%
    07:00 +1°C° 0 mm 2 mps 741 mmHg 85%
    08:00 +3°C° 0 mm 1 mps 741 mmHg 85%
    09:00 +4°C° 0 mm 1 mps 741 mmHg 84%
    10:00 +4°C° 0 mm 1 mps 742 mmHg 83%
    11:00 +5°C° 0 mm 1 mps 742 mmHg 83%
    12:00 +5°C° 0 mm 1 mps 742 mmHg 83%
    13:00 +6°C° 0 mm 1 mps 741 mmHg 83%
    14:00 +5°C° 0 mm 1 mps 742 mmHg 85%
    15:00 +5°C° 0 mm 1 mps 742 mmHg 86%
    16:00 +4°C° 0 mm 1 mps 742 mmHg 88%
    17:00 +4°C° 0 mm 1 mps 742 mmHg 88%
    18:00 +4°C° 0 mm 1 mps 742 mmHg 88%
    19:00 +4°C° 0 mm 1 mps 742 mmHg 89%
    20:00 +4°C° 0 mm 1 mps 742 mmHg 89%
    21:00 +4°C° 0 mm 1 mps 743 mmHg 89%
    22:00 +4°C° 0 mm 1 mps 743 mmHg 90%
    23:00 +4°C° 0 mm 1 mps 743 mmHg 90%
    Mostrar más